Year,Month,Day,Hour,Minute,Value (Times are PST for temperature in C)
2010,06,03,00,00,9.10
2010,06,03,00,01,9.00
2010,06,03,00,02,9.00
2010,06,03,00,03,9.00
2010,06,03,00,04,9.00
2010,06,03,00,05,9.00
2010,06,03,00,06,9.00
2010,06,03,00,07,9.10
2010,06,03,00,08,9.10
2010,06,03,00,09,9.10
2010,06,03,00,10,9.10
2010,06,03,00,11,9.10
2010,06,03,00,12,9.20
2010,06,03,00,17,9.20
2010,06,03,00,18,9.20
2010,06,03,00,19,9.20
2010,06,03,00,20,9.30
2010,06,03,00,21,9.30
2010,06,03,00,22,9.30
2010,06,03,00,23,9.30
2010,06,03,00,24,9.30
2010,06,03,00,25,9.30
2010,06,03,00,26,9.30
2010,06,03,00,27,9.20
2010,06,03,00,28,9.20
2010,06,03,00,29,9.20
2010,06,03,00,30,9.20
2010,06,03,00,31,9.20
2010,06,03,00,32,9.20
2010,06,03,00,33,9.20
2010,06,03,00,34,9.10
2010,06,03,00,35,9.10
2010,06,03,00,36,9.10
2010,06,03,00,37,9.10
2010,06,03,00,38,9.10
2010,06,03,00,39,9.10
2010,06,03,00,40,9.10
2010,06,03,00,41,9.10
2010,06,03,00,42,9.10
2010,06,03,00,43,9.10
2010,06,03,00,44,9.10
2010,06,03,00,45,9.00
2010,06,03,00,46,9.00
2010,06,03,00,47,9.00
2010,06,03,00,48,8.90
2010,06,03,00,49,8.90
2010,06,03,00,50,8.90
2010,06,03,00,51,8.90
2010,06,03,00,52,8.90
2010,06,03,00,53,8.80
2010,06,03,00,54,8.80
2010,06,03,00,55,8.80
2010,06,03,00,56,8.80
2010,06,03,00,57,8.80
2010,06,03,00,58,8.80
2010,06,03,00,59,8.80
2010,06,03,01,00,8.80
2010,06,03,01,01,8.80
2010,06,03,01,02,8.80
2010,06,03,01,03,8.80
2010,06,03,01,04,8.80
2010,06,03,01,05,8.80
2010,06,03,01,06,8.80
2010,06,03,01,07,8.80
2010,06,03,01,08,8.80
2010,06,03,01,09,8.80
2010,06,03,01,10,8.80
2010,06,03,01,11,8.80
2010,06,03,01,12,8.70
2010,06,03,01,13,8.70
2010,06,03,01,14,8.70
2010,06,03,01,15,8.70
2010,06,03,01,16,8.70
2010,06,03,01,17,8.70
2010,06,03,01,18,8.70
2010,06,03,01,19,8.70
2010,06,03,01,20,8.70
2010,06,03,01,21,8.70
2010,06,03,01,22,8.70
2010,06,03,01,23,8.60
2010,06,03,01,24,8.60
2010,06,03,01,25,8.60
2010,06,03,01,26,8.60
2010,06,03,01,27,8.60
2010,06,03,01,28,8.60
2010,06,03,01,29,8.60
2010,06,03,01,30,8.60
2010,06,03,01,31,8.60
2010,06,03,01,32,8.60
2010,06,03,01,33,8.60
2010,06,03,01,34,8.50
2010,06,03,01,35,8.50
2010,06,03,01,36,8.50
2010,06,03,01,37,8.50
2010,06,03,01,38,8.50
2010,06,03,01,39,8.50
2010,06,03,01,40,8.40
2010,06,03,01,41,8.40
2010,06,03,01,42,8.40
2010,06,03,01,43,8.40
2010,06,03,01,44,8.40
2010,06,03,01,45,8.40
2010,06,03,01,46,8.40
2010,06,03,01,47,8.40
2010,06,03,01,48,8.40
2010,06,03,01,49,8.40
2010,06,03,01,50,8.40
2010,06,03,01,51,8.40
2010,06,03,01,52,8.40
2010,06,03,01,53,8.40
2010,06,03,01,54,8.40
2010,06,03,01,55,8.40
2010,06,03,01,56,8.50
2010,06,03,01,57,8.50
2010,06,03,01,58,8.50
2010,06,03,01,59,8.50
2010,06,03,02,00,8.50
2010,06,03,02,01,8.50
2010,06,03,02,02,8.50
2010,06,03,02,03,8.50
2010,06,03,02,04,8.50
2010,06,03,02,05,8.50
2010,06,03,02,06,8.50
2010,06,03,02,07,8.50
2010,06,03,02,08,8.50
2010,06,03,02,09,8.50
2010,06,03,02,10,8.50
2010,06,03,02,11,8.50
2010,06,03,02,12,8.50
2010,06,03,02,13,8.50
2010,06,03,02,14,8.50
2010,06,03,02,15,8.60
2010,06,03,02,16,8.60
2010,06,03,02,17,8.60
2010,06,03,02,18,8.60
2010,06,03,02,19,8.60
2010,06,03,02,20,8.60
2010,06,03,02,21,8.60
2010,06,03,02,22,8.60
2010,06,03,02,23,8.60
2010,06,03,02,24,8.60
2010,06,03,02,25,8.60
2010,06,03,02,26,8.60
2010,06,03,02,27,8.60
2010,06,03,02,28,8.60
2010,06,03,02,29,8.60
2010,06,03,02,30,8.60
2010,06,03,02,31,8.60
2010,06,03,02,32,8.60
2010,06,03,02,33,8.60
2010,06,03,02,34,8.60
2010,06,03,02,35,8.60
2010,06,03,02,36,8.60
2010,06,03,02,37,8.60
2010,06,03,02,38,8.60
2010,06,03,02,39,8.60
2010,06,03,02,40,8.60
2010,06,03,02,41,8.60
2010,06,03,02,42,8.60
2010,06,03,02,43,8.70
2010,06,03,02,44,8.70
2010,06,03,02,45,8.80
2010,06,03,02,46,8.80
2010,06,03,02,47,8.80
2010,06,03,02,48,8.80
2010,06,03,02,49,8.80
2010,06,03,02,50,8.80
2010,06,03,02,51,8.80
2010,06,03,02,52,8.80
2010,06,03,02,53,8.80
2010,06,03,02,54,8.80
2010,06,03,02,55,8.80
2010,06,03,02,56,8.80
2010,06,03,02,57,8.80
2010,06,03,02,58,8.80
2010,06,03,02,59,8.80
2010,06,03,03,00,8.80
2010,06,03,03,01,8.80
2010,06,03,03,02,8.80
2010,06,03,03,03,8.80
2010,06,03,03,04,8.80
2010,06,03,03,05,8.70
2010,06,03,03,06,8.70
2010,06,03,03,07,8.70
2010,06,03,03,08,8.70
2010,06,03,03,09,8.70
2010,06,03,03,10,8.70
2010,06,03,03,11,8.70
2010,06,03,03,12,8.70
2010,06,03,03,13,8.70
2010,06,03,03,14,8.70
2010,06,03,03,15,8.70
2010,06,03,03,16,8.70
2010,06,03,03,17,8.70
2010,06,03,03,18,8.70
2010,06,03,03,19,8.70
2010,06,03,03,20,8.70
2010,06,03,03,21,8.70
2010,06,03,03,22,8.70
2010,06,03,03,23,8.70
2010,06,03,03,24,8.70
2010,06,03,03,25,8.70
2010,06,03,03,26,8.70
2010,06,03,03,27,8.70
2010,06,03,03,28,8.70
2010,06,03,03,29,8.70
2010,06,03,03,30,8.70
2010,06,03,03,31,8.60
2010,06,03,03,32,8.60
2010,06,03,03,33,8.60
2010,06,03,03,34,8.60
2010,06,03,03,35,8.60
2010,06,03,03,36,8.60
2010,06,03,03,37,8.60
2010,06,03,03,38,8.60
2010,06,03,03,39,8.60
2010,06,03,03,40,8.60
2010,06,03,03,41,8.60
2010,06,03,03,42,8.60
2010,06,03,03,43,8.60
2010,06,03,03,44,8.60
2010,06,03,03,45,8.60
2010,06,03,03,46,8.60
2010,06,03,03,47,8.60
2010,06,03,03,48,8.60
2010,06,03,03,49,8.60
2010,06,03,03,50,8.60
2010,06,03,03,51,8.60
2010,06,03,03,52,8.60
2010,06,03,03,53,8.60
2010,06,03,03,54,8.60
2010,06,03,03,55,8.60
2010,06,03,03,56,8.60
2010,06,03,03,57,8.60
2010,06,03,03,58,8.60
2010,06,03,03,59,8.60
2010,06,03,04,00,8.60
2010,06,03,04,01,8.60
2010,06,03,04,02,8.60
2010,06,03,04,03,8.60
2010,06,03,04,04,8.60
2010,06,03,04,05,8.50
2010,06,03,04,06,8.50
2010,06,03,04,07,8.50
2010,06,03,04,08,8.50
2010,06,03,04,09,8.50
2010,06,03,04,10,8.50
2010,06,03,04,11,8.50
2010,06,03,04,12,8.50
2010,06,03,04,13,8.50
2010,06,03,04,14,8.50
2010,06,03,04,15,8.50
2010,06,03,04,16,8.50
2010,06,03,04,17,8.50
2010,06,03,04,18,8.50
2010,06,03,04,19,8.50
2010,06,03,04,20,8.50
2010,06,03,04,21,8.50
2010,06,03,04,22,8.50
2010,06,03,04,23,8.50
2010,06,03,04,24,8.40
2010,06,03,04,25,8.40
2010,06,03,04,26,8.40
2010,06,03,04,27,8.40
2010,06,03,04,28,8.40
2010,06,03,04,29,8.40
2010,06,03,04,30,8.40
2010,06,03,04,31,8.40
2010,06,03,04,32,8.40
2010,06,03,04,33,8.40
2010,06,03,04,34,8.40
2010,06,03,04,35,8.40
2010,06,03,04,36,8.40
2010,06,03,04,37,8.30
2010,06,03,04,38,8.30
2010,06,03,04,39,8.30
2010,06,03,04,40,8.30
2010,06,03,04,41,8.30
2010,06,03,04,42,8.30
2010,06,03,04,43,8.30
2010,06,03,04,44,8.20
2010,06,03,04,45,8.20
2010,06,03,04,46,8.20
2010,06,03,04,47,8.20
2010,06,03,04,48,8.20
2010,06,03,04,49,8.10
2010,06,03,04,50,8.10
2010,06,03,04,51,8.10
2010,06,03,04,52,8.10
2010,06,03,04,53,8.10
2010,06,03,04,54,8.10
2010,06,03,04,55,8.00
2010,06,03,04,56,8.00
2010,06,03,04,57,8.00
2010,06,03,04,58,8.00
2010,06,03,04,59,8.00
2010,06,03,05,00,8.00
2010,06,03,05,01,7.90
2010,06,03,05,02,7.90
2010,06,03,05,03,7.90
2010,06,03,05,04,7.90
2010,06,03,05,05,7.90
2010,06,03,05,06,7.90
2010,06,03,05,07,7.90
2010,06,03,05,08,7.90
2010,06,03,05,09,7.80
2010,06,03,05,10,7.80
2010,06,03,05,11,7.80
2010,06,03,05,12,7.80
2010,06,03,05,13,7.80
2010,06,03,05,14,7.80
2010,06,03,05,15,7.80
2010,06,03,05,16,7.80
2010,06,03,05,17,7.80
2010,06,03,05,18,7.80
2010,06,03,05,19,7.80
2010,06,03,05,20,7.80
2010,06,03,05,21,7.80
2010,06,03,05,22,7.80
2010,06,03,05,23,7.70
2010,06,03,05,24,7.70
2010,06,03,05,25,7.70
2010,06,03,05,26,7.70
2010,06,03,05,27,7.70
2010,06,03,05,28,7.70
2010,06,03,05,29,7.70
2010,06,03,05,30,7.70
2010,06,03,05,31,7.70
2010,06,03,05,32,7.70
2010,06,03,05,33,7.70
2010,06,03,05,34,7.70
2010,06,03,05,35,7.80
2010,06,03,05,36,7.80
2010,06,03,05,37,7.80
2010,06,03,05,38,7.80
2010,06,03,05,39,7.80
2010,06,03,05,40,7.80
2010,06,03,05,41,7.80
2010,06,03,05,42,7.90
2010,06,03,05,43,7.90
2010,06,03,05,44,7.90
2010,06,03,05,45,7.90
2010,06,03,05,46,7.90
2010,06,03,05,47,8.00
2010,06,03,05,48,8.00
2010,06,03,05,49,8.00
2010,06,03,05,50,8.00
2010,06,03,05,51,8.00
2010,06,03,05,52,8.00
2010,06,03,05,53,8.10
2010,06,03,05,54,8.10
2010,06,03,05,55,8.10
2010,06,03,05,56,8.10
2010,06,03,05,57,8.20
2010,06,03,05,58,8.20
2010,06,03,05,59,8.20
2010,06,03,06,00,8.20
2010,06,03,06,01,8.20
2010,06,03,06,02,8.30
2010,06,03,06,03,8.30
2010,06,03,06,04,8.30
2010,06,03,06,05,8.30
2010,06,03,06,06,8.30
2010,06,03,06,07,8.30
2010,06,03,06,08,8.30
2010,06,03,06,09,8.30
2010,06,03,06,10,8.30
2010,06,03,06,11,8.30
2010,06,03,06,12,8.30
2010,06,03,06,13,8.30
2010,06,03,06,14,8.30
2010,06,03,06,15,8.30
2010,06,03,06,16,8.30
2010,06,03,06,17,8.20
2010,06,03,06,18,8.20
2010,06,03,06,19,8.20
2010,06,03,06,20,8.20
2010,06,03,06,21,8.20
2010,06,03,06,22,8.10
2010,06,03,06,23,8.10
2010,06,03,06,24,8.10
2010,06,03,06,25,8.10
2010,06,03,06,26,8.10
2010,06,03,06,27,8.10
2010,06,03,06,28,8.00
2010,06,03,06,29,8.00
2010,06,03,06,30,8.00
2010,06,03,06,31,8.00
2010,06,03,06,32,8.00
2010,06,03,06,33,8.00
2010,06,03,06,34,8.00
2010,06,03,06,35,7.90
2010,06,03,06,36,8.00
2010,06,03,06,37,7.90
2010,06,03,06,38,7.90
2010,06,03,06,39,7.90
2010,06,03,06,40,7.90
2010,06,03,06,41,7.90
2010,06,03,06,42,7.90
2010,06,03,06,43,7.90
2010,06,03,06,44,7.90
2010,06,03,06,45,7.90
2010,06,03,06,46,8.00
2010,06,03,06,47,8.00
2010,06,03,06,48,8.00
2010,06,03,06,49,8.00
2010,06,03,06,50,8.10
2010,06,03,06,51,8.10
2010,06,03,06,52,8.10
2010,06,03,06,53,8.10
2010,06,03,06,54,8.20
2010,06,03,06,55,8.20
2010,06,03,06,56,8.20
2010,06,03,06,57,8.20
2010,06,03,06,58,8.20
2010,06,03,06,59,8.30
2010,06,03,07,00,8.30
2010,06,03,07,01,8.30
2010,06,03,07,02,8.30
2010,06,03,07,03,8.30
2010,06,03,07,04,8.30
2010,06,03,07,05,8.30
2010,06,03,07,06,8.30
2010,06,03,07,07,8.30
2010,06,03,07,08,8.30
2010,06,03,07,09,8.30
2010,06,03,07,10,8.40
2010,06,03,07,11,8.50
2010,06,03,07,12,8.50
2010,06,03,07,13,8.60
2010,06,03,07,14,8.60
2010,06,03,07,15,8.60
2010,06,03,07,16,8.60
2010,06,03,07,17,8.70
2010,06,03,07,18,8.70
2010,06,03,07,19,8.70
2010,06,03,07,20,8.80
2010,06,03,07,21,8.80
2010,06,03,07,22,8.90
2010,06,03,07,23,8.90
2010,06,03,07,24,8.90
2010,06,03,07,25,8.90
2010,06,03,07,26,9.00
2010,06,03,07,27,9.00
2010,06,03,07,28,9.00
2010,06,03,07,29,9.10
2010,06,03,07,30,9.10
2010,06,03,07,31,9.10
2010,06,03,07,32,9.10
2010,06,03,07,33,9.10
2010,06,03,07,34,9.20
2010,06,03,07,35,9.20
2010,06,03,07,36,9.20
2010,06,03,07,37,9.20
2010,06,03,07,38,9.30
2010,06,03,07,39,9.30
2010,06,03,07,40,9.30
2010,06,03,07,41,9.30
2010,06,03,07,42,9.40
2010,06,03,07,43,9.40
2010,06,03,07,44,9.50
2010,06,03,07,45,9.50
2010,06,03,07,46,9.50
2010,06,03,07,47,9.60
2010,06,03,07,48,9.60
2010,06,03,07,49,9.70
2010,06,03,07,50,9.70
2010,06,03,07,51,9.80
2010,06,03,07,52,9.80
2010,06,03,07,53,9.80
2010,06,03,07,54,9.90
2010,06,03,07,55,10.00
2010,06,03,07,56,10.00
2010,06,03,07,57,10.10
2010,06,03,07,58,10.10
2010,06,03,07,59,10.10
2010,06,03,08,00,10.10
2010,06,03,08,01,10.10
2010,06,03,08,02,10.10
2010,06,03,08,03,10.20
2010,06,03,08,04,10.20
2010,06,03,08,05,10.20
2010,06,03,08,06,10.20
2010,06,03,08,07,10.20
2010,06,03,08,08,10.20
2010,06,03,08,09,10.20
2010,06,03,08,10,10.20
2010,06,03,08,11,10.20
2010,06,03,08,12,10.20
2010,06,03,08,13,10.20
2010,06,03,08,14,10.20
2010,06,03,08,15,10.10
2010,06,03,08,16,10.10
2010,06,03,08,17,10.10
2010,06,03,08,18,10.10
2010,06,03,08,19,10.00
2010,06,03,08,20,10.00
2010,06,03,08,21,9.90
2010,06,03,08,22,9.90
2010,06,03,08,23,9.90
2010,06,03,08,24,9.90
2010,06,03,08,25,9.90
2010,06,03,08,26,9.90
2010,06,03,08,27,9.90
2010,06,03,08,28,9.90
2010,06,03,08,29,10.00
2010,06,03,08,30,10.00
2010,06,03,08,31,10.00
2010,06,03,08,32,10.00
2010,06,03,08,33,10.00
2010,06,03,08,34,10.00
2010,06,03,08,35,10.00
2010,06,03,08,36,10.10
2010,06,03,08,37,10.00
2010,06,03,08,38,10.00
2010,06,03,08,39,10.00
2010,06,03,08,40,9.90
2010,06,03,08,41,9.90
2010,06,03,08,42,9.90
2010,06,03,08,43,9.90
2010,06,03,08,44,9.90
2010,06,03,08,45,9.80
2010,06,03,08,46,9.80
2010,06,03,08,47,9.80
2010,06,03,08,48,9.80
2010,06,03,08,49,9.80
2010,06,03,08,50,9.90
2010,06,03,08,51,9.90
2010,06,03,08,52,9.90
2010,06,03,08,53,9.90
2010,06,03,08,54,10.00
2010,06,03,08,55,10.10
2010,06,03,08,56,10.10
2010,06,03,08,57,10.20
2010,06,03,08,58,10.20
2010,06,03,08,59,10.30
2010,06,03,09,00,10.30
2010,06,03,09,01,10.30
2010,06,03,09,02,10.30
2010,06,03,09,03,10.30
2010,06,03,09,04,10.30
2010,06,03,09,05,10.30
2010,06,03,09,06,10.40
2010,06,03,09,07,10.40
2010,06,03,09,08,10.40
2010,06,03,09,09,10.50
2010,06,03,09,10,10.50
2010,06,03,09,11,10.60
2010,06,03,09,12,10.60
2010,06,03,09,13,10.60
2010,06,03,09,14,10.70
2010,06,03,09,15,10.70
2010,06,03,09,16,10.60
2010,06,03,09,17,10.70
2010,06,03,09,18,10.70
2010,06,03,09,19,10.70
2010,06,03,09,20,10.70
2010,06,03,09,21,10.70
2010,06,03,09,22,10.70
2010,06,03,09,23,10.70
2010,06,03,09,24,10.80
2010,06,03,09,25,10.80
2010,06,03,09,26,10.80
2010,06,03,09,27,10.80
2010,06,03,09,28,10.90
2010,06,03,09,29,10.90
2010,06,03,09,30,11.00
2010,06,03,09,31,11.10
2010,06,03,09,32,11.10
2010,06,03,09,33,11.20
2010,06,03,09,34,11.20
2010,06,03,09,35,11.20
2010,06,03,09,36,11.20
2010,06,03,09,37,11.10
2010,06,03,09,38,11.20
2010,06,03,09,39,11.20
2010,06,03,09,40,11.20
2010,06,03,09,41,11.20
2010,06,03,09,42,11.20
2010,06,03,09,43,11.20
2010,06,03,09,44,11.20
2010,06,03,09,45,11.30
2010,06,03,09,46,11.30
2010,06,03,09,47,11.30
2010,06,03,09,48,11.30
2010,06,03,09,49,11.30
2010,06,03,09,50,11.40
2010,06,03,09,51,11.40
2010,06,03,09,52,11.50
2010,06,03,09,53,11.50
2010,06,03,09,54,11.60
2010,06,03,09,55,11.60
2010,06,03,09,56,11.60
2010,06,03,09,57,11.60
2010,06,03,09,58,11.70
2010,06,03,09,59,11.70
2010,06,03,10,00,11.70
2010,06,03,10,01,11.80
2010,06,03,10,02,11.80
2010,06,03,10,03,11.90
2010,06,03,10,04,11.90
2010,06,03,10,05,12.00
2010,06,03,10,06,12.10
2010,06,03,10,07,12.10
2010,06,03,10,08,12.20
2010,06,03,10,09,12.20
2010,06,03,10,10,12.20
2010,06,03,10,11,12.20
2010,06,03,10,12,12.20
2010,06,03,10,13,12.20
2010,06,03,10,14,12.20
2010,06,03,10,15,12.20
2010,06,03,10,16,12.20
2010,06,03,10,17,12.20
2010,06,03,10,18,12.20
2010,06,03,10,19,12.20
2010,06,03,10,20,12.20
2010,06,03,10,21,12.20
2010,06,03,10,22,12.30
2010,06,03,10,23,12.30
2010,06,03,10,24,12.30
2010,06,03,10,25,12.30
2010,06,03,10,26,12.30
2010,06,03,10,27,12.30
2010,06,03,10,28,12.30
2010,06,03,10,29,12.30
2010,06,03,10,30,12.30
2010,06,03,10,31,12.30
2010,06,03,10,32,12.30
2010,06,03,10,33,12.40
2010,06,03,10,34,12.40
2010,06,03,10,35,12.40
2010,06,03,10,36,12.50
2010,06,03,10,37,12.60
2010,06,03,10,38,12.60
2010,06,03,10,39,12.70
2010,06,03,10,40,12.70
2010,06,03,10,41,12.70
2010,06,03,10,42,12.70
2010,06,03,10,43,12.70
2010,06,03,10,44,12.70
2010,06,03,10,45,12.70
2010,06,03,10,46,12.70
2010,06,03,10,47,12.70
2010,06,03,10,48,12.80
2010,06,03,10,49,12.80
2010,06,03,10,50,12.80
2010,06,03,10,51,12.90
2010,06,03,10,52,13.00
2010,06,03,10,53,13.20
2010,06,03,10,54,13.40
2010,06,03,10,55,13.50
2010,06,03,10,56,13.60
2010,06,03,10,57,13.70
2010,06,03,10,58,13.70
2010,06,03,10,59,13.80
2010,06,03,11,00,13.80
2010,06,03,11,01,13.70
2010,06,03,11,02,13.70
2010,06,03,11,03,13.70
2010,06,03,11,04,13.70
2010,06,03,11,05,13.70
2010,06,03,11,06,13.70
2010,06,03,11,07,13.70
2010,06,03,11,08,13.70
2010,06,03,11,09,13.70
2010,06,03,11,10,13.70
2010,06,03,11,11,13.70
2010,06,03,11,12,13.70
2010,06,03,11,13,13.70
2010,06,03,11,14,13.70
2010,06,03,11,15,13.70
2010,06,03,11,16,13.80
2010,06,03,11,17,13.90
2010,06,03,11,18,13.90
2010,06,03,11,19,13.90
2010,06,03,11,20,14.00
2010,06,03,11,21,14.00
2010,06,03,11,22,14.00
2010,06,03,11,23,13.90
2010,06,03,11,24,13.90
2010,06,03,11,25,13.80
2010,06,03,11,26,13.70
2010,06,03,11,27,13.70
2010,06,03,11,28,13.70
2010,06,03,11,29,13.60
2010,06,03,11,30,13.60
2010,06,03,11,31,13.60
2010,06,03,11,32,13.60
2010,06,03,11,33,13.60
2010,06,03,11,34,13.70
2010,06,03,11,35,13.70
2010,06,03,11,36,13.80
2010,06,03,11,37,13.90
2010,06,03,11,38,13.90
2010,06,03,11,39,14.00
2010,06,03,11,40,14.10
2010,06,03,11,41,14.10
2010,06,03,11,42,14.20
2010,06,03,11,43,14.20
2010,06,03,11,44,14.20
2010,06,03,11,45,14.30
2010,06,03,11,46,14.30
2010,06,03,11,47,14.30
2010,06,03,11,48,14.30
2010,06,03,11,49,14.30
2010,06,03,11,50,14.30
2010,06,03,11,51,14.30
2010,06,03,11,52,14.30
2010,06,03,11,53,14.40
2010,06,03,11,54,14.40
2010,06,03,11,55,14.30
2010,06,03,11,56,14.30
2010,06,03,11,57,14.20
2010,06,03,11,58,14.10
2010,06,03,11,59,14.10
2010,06,03,12,00,14.10
2010,06,03,12,01,14.10
2010,06,03,12,02,14.10
2010,06,03,12,03,14.10
2010,06,03,12,04,14.20
2010,06,03,12,05,14.20
2010,06,03,12,06,14.20
2010,06,03,12,07,14.30
2010,06,03,12,08,14.30
2010,06,03,12,09,14.30
2010,06,03,12,10,14.30
2010,06,03,12,11,14.30
2010,06,03,12,12,14.30
2010,06,03,12,13,14.30
2010,06,03,12,14,14.30
2010,06,03,12,15,14.30
2010,06,03,12,16,14.30
2010,06,03,12,17,14.30
2010,06,03,12,18,14.30
2010,06,03,12,19,14.30
2010,06,03,12,20,14.40
2010,06,03,12,21,14.40
2010,06,03,12,22,14.50
2010,06,03,12,23,14.60
2010,06,03,12,24,14.60
2010,06,03,12,25,14.60
2010,06,03,12,26,14.60
2010,06,03,12,27,14.60
2010,06,03,12,28,14.70
2010,06,03,12,29,14.70
2010,06,03,12,30,14.70
2010,06,03,12,31,14.70
2010,06,03,12,32,14.80
2010,06,03,12,33,14.80
2010,06,03,12,34,14.70
2010,06,03,12,35,14.70
2010,06,03,12,36,14.60
2010,06,03,12,37,14.60
2010,06,03,12,38,14.50
2010,06,03,12,39,14.50
2010,06,03,12,40,14.50
2010,06,03,12,41,14.50
2010,06,03,12,42,14.50
2010,06,03,12,43,14.50
2010,06,03,12,44,14.50
2010,06,03,12,45,14.40
2010,06,03,12,46,14.40
2010,06,03,12,47,14.50
2010,06,03,12,48,14.50
2010,06,03,12,49,14.60
2010,06,03,12,50,14.60
2010,06,03,12,51,14.70
2010,06,03,12,52,14.70
2010,06,03,12,53,14.80
2010,06,03,12,54,14.80
2010,06,03,12,55,14.80
2010,06,03,12,56,14.80
2010,06,03,12,57,14.80
2010,06,03,12,58,14.80
2010,06,03,12,59,14.80
2010,06,03,13,00,14.90
2010,06,03,13,01,14.90
2010,06,03,13,02,14.90
2010,06,03,13,03,14.90
2010,06,03,13,04,14.80
2010,06,03,13,05,14.80
2010,06,03,13,06,14.80
2010,06,03,13,07,14.80
2010,06,03,13,08,14.80
2010,06,03,13,09,14.80
2010,06,03,13,10,14.70
2010,06,03,13,11,14.60
2010,06,03,13,12,14.50
2010,06,03,13,13,14.30
2010,06,03,13,14,14.10
2010,06,03,13,15,14.00
2010,06,03,13,16,13.80
2010,06,03,13,17,13.80
2010,06,03,13,18,13.80
2010,06,03,13,19,13.80
2010,06,03,13,20,13.90
2010,06,03,13,21,14.00
2010,06,03,13,22,14.10
2010,06,03,13,23,14.10
2010,06,03,13,24,14.10
2010,06,03,13,25,14.10
2010,06,03,13,26,14.00
2010,06,03,13,27,13.90
2010,06,03,13,28,13.90
2010,06,03,13,29,13.80
2010,06,03,13,30,13.80
2010,06,03,13,31,13.60
2010,06,03,13,32,13.50
2010,06,03,13,33,13.40
2010,06,03,13,34,13.30
2010,06,03,13,35,13.20
2010,06,03,13,36,13.10
2010,06,03,13,37,13.10
2010,06,03,13,38,13.10
2010,06,03,13,39,13.00
2010,06,03,13,40,13.00
2010,06,03,13,41,13.00
2010,06,03,13,42,13.00
2010,06,03,13,43,13.00
2010,06,03,13,44,13.00
2010,06,03,13,45,12.90
2010,06,03,13,46,12.90
2010,06,03,13,47,12.90
2010,06,03,13,48,12.90
2010,06,03,13,49,12.90
2010,06,03,13,50,12.90
2010,06,03,13,51,12.90
2010,06,03,13,52,13.00
2010,06,03,13,53,13.00
2010,06,03,13,54,13.10
2010,06,03,13,55,13.10
2010,06,03,13,56,13.10
2010,06,03,13,57,13.10
2010,06,03,13,58,13.10
2010,06,03,13,59,13.10
2010,06,03,14,00,13.10
2010,06,03,14,01,13.10
2010,06,03,14,02,13.10
2010,06,03,14,03,13.00
2010,06,03,14,04,12.90
2010,06,03,14,05,12.80
2010,06,03,14,06,12.80
2010,06,03,14,07,12.80
2010,06,03,14,08,12.80
2010,06,03,14,09,12.80
2010,06,03,14,10,12.80
2010,06,03,14,11,12.80
2010,06,03,14,12,12.80
2010,06,03,14,13,12.80
2010,06,03,14,14,12.80
2010,06,03,14,15,12.80
2010,06,03,14,16,12.80
2010,06,03,14,17,12.80
2010,06,03,14,18,12.90
2010,06,03,14,19,13.00
2010,06,03,14,20,13.10
2010,06,03,14,21,13.10
2010,06,03,14,22,13.20
2010,06,03,14,23,13.20
2010,06,03,14,24,13.20
2010,06,03,14,25,13.30
2010,06,03,14,26,13.30
2010,06,03,14,27,13.40
2010,06,03,14,28,13.40
2010,06,03,14,29,13.40
2010,06,03,14,30,13.40
2010,06,03,14,31,13.40
2010,06,03,14,32,13.40
2010,06,03,14,33,13.40
2010,06,03,14,34,13.40
2010,06,03,14,35,13.30
2010,06,03,14,36,13.20
2010,06,03,14,37,13.20
2010,06,03,14,38,13.20
2010,06,03,14,39,13.20
2010,06,03,14,40,13.20
2010,06,03,14,41,13.30
2010,06,03,14,42,13.40
2010,06,03,14,43,13.50
2010,06,03,14,44,13.60
2010,06,03,14,45,13.70
2010,06,03,14,46,13.80
2010,06,03,14,47,13.80
2010,06,03,14,48,13.90
2010,06,03,14,49,13.90
2010,06,03,14,50,13.90
2010,06,03,14,51,13.90
2010,06,03,14,52,13.90
2010,06,03,14,53,13.80
2010,06,03,14,54,13.80
2010,06,03,14,55,13.80
2010,06,03,14,56,13.70
2010,06,03,14,57,13.70
2010,06,03,14,58,13.70
2010,06,03,14,59,13.70
2010,06,03,15,00,13.70
2010,06,03,15,01,13.70
2010,06,03,15,02,13.70
2010,06,03,15,03,13.70
2010,06,03,15,04,13.70
2010,06,03,15,05,13.80
2010,06,03,15,06,13.80
2010,06,03,15,07,13.90
2010,06,03,15,08,13.90
2010,06,03,15,09,13.90
2010,06,03,15,10,14.00
2010,06,03,15,11,14.00
2010,06,03,15,12,14.10
2010,06,03,15,13,14.10
2010,06,03,15,14,14.10
2010,06,03,15,15,14.00
2010,06,03,15,16,14.00
2010,06,03,15,17,14.00
2010,06,03,15,18,14.10
2010,06,03,15,19,14.10
2010,06,03,15,20,14.20
2010,06,03,15,21,14.30
2010,06,03,15,22,14.30
2010,06,03,15,23,14.40
2010,06,03,15,24,14.50
2010,06,03,15,25,14.50
2010,06,03,15,26,14.60
2010,06,03,15,27,14.70
2010,06,03,15,28,14.80
2010,06,03,15,29,14.90
2010,06,03,15,30,14.90
2010,06,03,15,31,15.00
2010,06,03,15,32,15.10
2010,06,03,15,33,15.10
2010,06,03,15,34,15.20
2010,06,03,15,35,15.20
2010,06,03,15,36,15.20
2010,06,03,15,37,15.20
2010,06,03,15,38,15.20
2010,06,03,15,39,15.10
2010,06,03,15,40,15.10
2010,06,03,15,41,15.10
2010,06,03,15,42,15.00
2010,06,03,15,43,14.90
2010,06,03,15,44,14.90
2010,06,03,15,45,14.90
2010,06,03,15,46,14.90
2010,06,03,15,47,14.90
2010,06,03,15,48,14.90
2010,06,03,15,49,14.90
2010,06,03,15,50,14.90
2010,06,03,15,51,14.90
2010,06,03,15,52,15.00
2010,06,03,15,53,15.00
2010,06,03,15,54,14.90
2010,06,03,15,55,14.90
2010,06,03,15,56,14.90
2010,06,03,15,57,14.80
2010,06,03,15,58,14.80
2010,06,03,15,59,14.70
2010,06,03,16,00,14.70
2010,06,03,16,01,14.80
2010,06,03,16,02,14.70
2010,06,03,16,03,14.70
2010,06,03,16,04,14.60
2010,06,03,16,05,14.60
2010,06,03,16,06,14.60
2010,06,03,16,07,14.60
2010,06,03,16,08,14.60
2010,06,03,16,09,14.70
2010,06,03,16,10,14.70
2010,06,03,16,11,14.70
2010,06,03,16,12,14.70
2010,06,03,16,13,14.70
2010,06,03,16,14,14.70
2010,06,03,16,15,14.60
2010,06,03,16,16,14.60
2010,06,03,16,17,14.60
2010,06,03,16,18,14.50
2010,06,03,16,19,14.50
2010,06,03,16,20,14.40
2010,06,03,16,21,14.40
2010,06,03,16,22,14.30
2010,06,03,16,23,14.20
2010,06,03,16,24,14.10
2010,06,03,16,25,14.00
2010,06,03,16,26,13.90
2010,06,03,16,27,13.90
2010,06,03,16,28,13.80
2010,06,03,16,29,13.90
2010,06,03,16,30,13.90
2010,06,03,16,31,13.90
2010,06,03,16,32,14.00
2010,06,03,16,33,14.00
2010,06,03,16,34,14.00
2010,06,03,16,35,13.90
2010,06,03,16,36,13.90
2010,06,03,16,37,14.00
2010,06,03,16,38,14.00
2010,06,03,16,39,14.00
2010,06,03,16,40,14.10
2010,06,03,16,41,14.10
2010,06,03,16,42,14.20
2010,06,03,16,43,14.20
2010,06,03,16,44,14.20
2010,06,03,16,45,14.20
2010,06,03,16,46,14.20
2010,06,03,16,47,14.20
2010,06,03,16,48,14.20
2010,06,03,16,49,14.30
2010,06,03,16,50,14.30
2010,06,03,16,51,14.30
2010,06,03,16,52,14.30
2010,06,03,16,53,14.30
2010,06,03,16,54,14.30
2010,06,03,16,55,14.30
2010,06,03,16,56,14.30
2010,06,03,16,57,14.30
2010,06,03,16,58,14.30
2010,06,03,16,59,14.30
2010,06,03,17,00,14.20
2010,06,03,17,01,14.20
2010,06,03,17,02,14.20
2010,06,03,17,03,14.20
2010,06,03,17,04,14.20
2010,06,03,17,05,14.20
2010,06,03,17,06,14.20
2010,06,03,17,07,14.20
2010,06,03,17,08,14.20
2010,06,03,17,09,14.20
2010,06,03,17,10,14.10
2010,06,03,17,11,14.10
2010,06,03,17,12,14.10
2010,06,03,17,13,14.10
2010,06,03,17,14,14.10
2010,06,03,17,15,14.20
2010,06,03,17,16,14.20
2010,06,03,17,17,14.20
2010,06,03,17,18,14.20
2010,06,03,17,19,14.20
2010,06,03,17,20,14.20
2010,06,03,17,21,14.20
2010,06,03,17,22,14.20
2010,06,03,17,23,14.20
2010,06,03,17,24,14.20
2010,06,03,17,25,14.10
2010,06,03,17,26,14.00
2010,06,03,17,27,14.00
2010,06,03,17,28,14.00
2010,06,03,17,29,13.90
2010,06,03,17,30,13.90
2010,06,03,17,34,13.80
2010,06,03,17,35,13.70
2010,06,03,17,36,13.60
2010,06,03,17,37,13.60
2010,06,03,17,38,13.60
2010,06,03,17,39,13.60
2010,06,03,17,40,13.60
2010,06,03,17,41,13.60
2010,06,03,17,42,13.60
2010,06,03,17,43,13.60
2010,06,03,17,44,13.60
2010,06,03,17,45,13.60
2010,06,03,17,46,13.50
2010,06,03,17,47,13.40